[[{"header":{"parameterUnit":"m.s-1","parameterCategory":1,"la1":30.2991,"la2":30.254,"lo1":-89.0895,"lo2":-89.0444,"dy":0.0017,"dx":0.0017,"nx":28,"ny":28,"refTime":"2026-03-03T09:00:00:Z","depth":0,"parameterNumber":2,"parameterNumberName":"U-component_of_WINDS"},"data":[0,0,0,0,0,0,0,0,0,0,0,0,0,0,0,0,0,0,0,0,0,0,0,0,0,0,0,0,0,0,0,0,0,0,0,0,0,0,0,0,0,0,0,0,0,0,0,0,0,0,0,0,0,0,0,0,0,0,-5.5455,-5.5456,0,-5.5501,-5.5502,-5.5502,-5.5417,-5.5414,-5.5411,-5.5408,-5.5455,-5.5459,-5.5462,0,0,0,0,0,0,0,0,0,0,0,0,0,-5.5295,-5.5298,-5.5455,-5.5456,-5.5456,-5.5501,-5.5502,-5.5502,-5.5417,-5.5414,-5.541,-5.5407,-5.5454,-5.5458,-5.5463,0,0,0,0,0,0,0,0,0,0,0,0,0,-5.5355,-5.5299,-5.5455,-5.5419,-5.5417,-5.5501,-5.5502,-5.5503,-5.5418,-5.5414,-5.5409,-5.5406,-5.5452,-5.5458,-5.5463,-5.5585,0,0,-5.5481,-5.5484,0,0,0,0,0,0,0,0,-5.5352,-5.5361,-5.5424,-5.5422,-5.5419,-5.5449,-5.5462,-5.553,-5.5419,-5.5418,-5.5408,-5.5403,-5.5456,-5.5461,-5.5479,-5.5587,-5.5589,-5.5482,-5.5485,-5.5488,-5.5489,0,0,0,0,0,0,0,-5.5348,-5.5359,-5.5473,-5.5425,-5.5422,-5.5401,-5.5405,-5.5475,-5.546,-5.5417,-5.5411,-5.5418,-5.5454,-5.5474,-5.548,-5.5589,-5.5482,-5.5487,-5.549,-5.5493,-5.58,-5.5805,0,0,0,0,0,0,-5.5348,-5.5356,-5.5472,-5.5475,-5.5374,-5.5408,-5.5412,-5.5444,-5.5459,-5.5457,-5.5421,-5.5414,-5.5466,-5.5473,-5.5481,-5.5624,-5.5488,-5.5493,-5.5496,-5.5796,-5.5801,-5.5806,0,0,0,0,0,0,-5.5345,-5.5359,-5.547,-5.5414,-5.5426,-5.5415,-5.5451,-5.5447,-5.5466,-5.5462,-5.5459,-5.5444,-5.5463,-5.5473,-5.556,-5.5624,-5.5496,-5.5501,-5.579,-5.5797,-5.5804,-5.5911,0,0,0,0,0,0,-5.5341,-5.5359,-5.5404,-5.5415,-5.543,-5.5548,-5.5455,-5.5451,-5.5477,-5.5467,-5.5483,-5.5482,-5.546,-5.5552,-5.5566,-5.563,-5.5506,-5.5784,-5.5793,-5.5802,-5.5902,-5.5921,-5.5938,0,0,0,0,0,-5.5335,-5.5432,-5.5407,-5.5421,-5.5486,-5.5552,-5.556,-5.5534,-5.5482,-5.5528,-5.5526,-5.5481,-5.5616,-5.5561,-5.5576,-5.5644,-5.578,-5.5791,-5.5801,-5.5894,-5.5917,-5.5937,0,0,0,0,0,0,-5.5427,-5.5432,-5.5404,-5.5508,-5.553,-5.5537,-5.5593,-5.5559,-5.5596,-5.5585,-5.5552,-5.5556,-5.565,-5.5656,-5.5595,-5.5763,-5.5689,-5.5703,-5.5755,-5.5777,-5.5795,-5.579,-5.551,0,0,0,0,0,-5.5459,-5.5512,-5.5514,-5.5605,-5.5618,-5.5605,-5.5632,-5.5611,-5.5632,-5.5641,-5.5645,-5.5668,-5.5715,-5.5747,-5.579,-5.5904,-5.5906,-5.5958,-5.5975,-5.599,-5.6002,-5.6063,-5.6086,-5.5841,-5.5841,-5.5841,0,0,-5.5526,-5.5536,-5.5571,-5.5624,-5.5638,-5.5694,-5.5613,-5.5675,-5.5716,-5.565,-5.5732,-5.5737,-5.576,-5.5861,-5.5906,-5.5869,-5.6071,-5.6004,-5.6015,-5.6019,-5.6076,-5.6099,-5.612,-5.5848,-5.5847,-5.5846,0,0,-5.5676,-5.5689,-5.5766,-5.5784,-5.5808,-5.5799,-5.5818,-5.5831,-5.5832,-5.5914,-5.5867,-5.5916,-5.5998,-5.6017,-5.6037,-5.6199,-5.6159,-5.6215,-5.6307,-5.6367,-5.6386,-5.6403,-5.646,-5.6481,-5.6227,-5.6227,-5.6227,0,-5.5756,-5.5837,-5.581,-5.5876,-5.5901,-5.5847,-5.5925,-5.5943,-5.598,-5.5999,-5.5958,-5.6062,-5.6073,-5.6178,-5.6218,-5.6237,-5.6257,-5.6211,-5.6386,-5.6402,-5.6418,-5.6472,-5.6493,-5.6234,-5.6233,-5.6232,-5.6232,0,-5.5934,-5.5992,-5.6052,-5.609,-5.6122,-5.6194,-5.6179,-5.6215,-5.6192,-5.6188,-5.6274,-5.6287,-5.6332,-5.6356,-5.6334,-5.6459,-5.6435,-5.6391,-5.6316,-5.6448,-5.6498,-5.6518,-5.6243,-5.6241,-5.6239,-5.6237,0,0,-5.6138,-5.6164,-5.6186,-5.6203,-5.6228,-5.6272,-5.6343,-5.6389,-5.642,-5.6449,-5.6507,-5.658,-5.654,-5.6563,-5.6543,-5.6597,-5.6724,-5.6545,-5.6545,-5.6577,-5.6862,-5.6894,-5.6918,-5.6699,-5.6703,-5.6706,-5.686,0,-5.6286,-5.6407,-5.6387,-5.6505,-5.6558,-5.6509,-5.6571,-5.6593,-5.6593,-5.6638,-5.6638,-5.669,-5.6633,-5.6647,-5.6697,-5.6698,-5.678,-5.6687,-5.6752,-5.6755,-5.6745,-5.6945,-5.6978,-5.7122,-5.688,-5.6883,-5.6885,0,-5.6473,-5.651,-5.6634,-5.6652,-5.6674,-5.6729,-5.6771,-5.6815,-5.6841,-5.6836,-5.6865,-5.6836,-5.6907,-5.6835,-5.6932,-5.6869,-5.6896,-5.6901,-5.6906,-5.6908,-5.6826,-5.6951,-5.7167,-5.7189,-5.6916,-5.6914,-5.6911,0,-5.6609,-5.669,-5.6774,-5.6791,-5.6814,-5.6855,-5.6867,-5.6888,-5.6917,-5.6954,-5.6973,-5.7018,-5.7042,-5.7078,-5.7062,-5.7011,-5.7164,-5.7089,-5.7161,-5.7162,-5.7193,-5.719,-5.7414,-5.7214,-5.7214,-5.7214,-5.7213,0,-5.6774,-5.6851,-5.6835,-5.6887,-5.6972,-5.695,-5.7035,-5.7041,-5.7061,-5.7114,-5.7076,-5.7126,-5.7103,-5.7152,-5.7141,-5.7224,-5.7236,-5.7234,-5.723,-5.7236,-5.7236,-5.7251,-5.7239,-5.7219,-5.7218,-5.7217,-5.7216,0,-5.6937,-5.693,-5.7019,-5.7035,-5.7042,-5.7104,-5.7118,-5.7167,-5.7165,-5.7232,-5.7247,-5.7243,-5.7299,-5.7289,-5.735,-5.7343,-5.7447,-5.7431,-5.7438,-5.7433,-5.7506,-5.7499,-5.7745,-5.7776,-5.7558,-5.756,-5.7562,0,-5.7042,-5.71,-5.7124,-5.7157,-5.7172,-5.7225,-5.7256,-5.7238,-5.7271,-5.7306,-5.7351,-5.7404,-5.7445,-5.7538,-5.7541,-5.7588,-5.7572,-5.7656,-5.7579,-5.7584,-5.7572,-5.7567,-5.7573,-5.7669,-5.7672,-5.7674,-5.7676,0,-5.7228,-5.7222,-5.7268,-5.7314,-5.7352,-5.7387,-5.7418,-5.7447,-5.7432,-5.7472,-5.7529,-5.7561,-5.7626,-5.7679,-5.7724,-5.7736,-5.7704,-5.7701,-5.772,-5.7725,-5.7726,-5.7725,-5.7477,-5.7694,-5.7692,-5.7691,-5.769,-5.7689,-5.7363,-5.7414,-5.7439,-5.7492,-5.7514,-5.7545,-5.7592,-5.7597,-5.7645,-5.7696,-5.7683,-5.7748,-5.7775,-5.7832,-5.785,-5.7902,-5.787,-5.7898,-5.7905,-5.7911,-5.7919,-5.7721,-5.791,-5.7909,-5.7909,-5.7908,-5.7908,0,-5.7546,-5.7561,-5.761,-5.7656,-5.7698,-5.7667,-5.77,-5.7738,-5.7796,-5.7824,-5.7866,-5.7933,-5.7985,-5.7995,-5.8045,-5.8084,-5.807,-5.8098,-5.8093,-5.8096,-5.7945,-5.7923,-5.8108,-5.8108,-5.8108,-5.8108,-5.8108,-5.8108,-5.7645,-5.7729,-5.7727,-5.7822,-5.7836,-5.79,-5.7922,-5.7951,-5.7973,-5.805,-5.8094,-5.81,-5.8121,-5.8173,-5.822,-5.8222,-5.8241,-5.8274,-5.827,-5.8127,-5.8107,-5.8088,-5.8067,-5.8279,-5.8279,-5.8416,-5.8418,-5.8418]},{"header":{"parameterUnit":"m.s-1","parameterCategory":1,"la1":30.2991,"la2":30.254,"lo1":-89.0895,"lo2":-89.0444,"dy":0.0017,"dx":0.0017,"nx":28,"ny":28,"refTime":"2026-03-03T09:00:00:Z","depth":0,"parameterNumber":3,"parameterNumberName":"V-component_of_WINDS"},"data":[0,0,0,0,0,0,0,0,0,0,0,0,0,0,0,0,0,0,0,0,0,0,0,0,0,0,0,0,0,0,0,0,0,0,0,0,0,0,0,0,0,0,0,0,0,0,0,0,0,0,0,0,0,0,0,0,0,0,1.2208,1.2209,0,1.2296,1.2297,1.2298,1.2347,1.2347,1.2347,1.2347,1.2437,1.2439,1.2441,0,0,0,0,0,0,0,0,0,0,0,0,0,1.2082,1.2084,1.2208,1.2209,1.221,1.2296,1.2297,1.2299,1.2347,1.2347,1.2347,1.2347,1.2436,1.2439,1.2442,0,0,0,0,0,0,0,0,0,0,0,0,0,1.215,1.2085,1.2208,1.2244,1.2249,1.2296,1.2298,1.2299,1.2347,1.2347,1.2347,1.2347,1.2435,1.2439,1.2442,1.2459,0,0,1.2452,1.2454,0,0,0,0,0,0,0,0,1.2146,1.2155,1.2238,1.2242,1.2247,1.2311,1.2286,1.2353,1.2347,1.2309,1.2347,1.2347,1.2395,1.2402,1.2418,1.2464,1.2467,1.2453,1.2455,1.2456,1.2457,0,0,0,0,0,0,0,1.2141,1.2151,1.2243,1.2239,1.2244,1.2257,1.2267,1.2299,1.235,1.2313,1.2316,1.2326,1.2397,1.2414,1.242,1.2469,1.2453,1.2456,1.2458,1.2459,1.2537,1.2537,0,0,0,0,0,0,1.2131,1.2147,1.224,1.2245,1.2196,1.2259,1.227,1.229,1.235,1.2359,1.2326,1.2328,1.2408,1.2416,1.2424,1.245,1.2456,1.2459,1.2461,1.2537,1.2537,1.2537,0,0,0,0,0,0,1.2128,1.2138,1.2236,1.2197,1.2211,1.2261,1.2283,1.2292,1.2309,1.236,1.2369,1.2334,1.2409,1.2419,1.2451,1.2454,1.2461,1.2464,1.2537,1.2537,1.2537,1.2502,0,0,0,0,0,0,1.2124,1.2137,1.2143,1.2197,1.2213,1.2262,1.2283,1.2293,1.2315,1.2318,1.237,1.2379,1.241,1.2446,1.2454,1.2459,1.2467,1.2537,1.2537,1.2537,1.2503,1.2501,1.2499,0,0,0,0,0,1.2119,1.2129,1.2143,1.2154,1.2222,1.2262,1.2271,1.2307,1.2315,1.2322,1.2356,1.2377,1.2452,1.2449,1.2459,1.2464,1.2537,1.2537,1.2537,1.2504,1.2501,1.2499,0,0,0,0,0,0,1.2073,1.2136,1.2153,1.2181,1.2216,1.227,1.228,1.2302,1.2335,1.2337,1.238,1.2391,1.242,1.2445,1.244,1.2486,1.2497,1.2499,1.2468,1.2466,1.2464,1.2458,1.247,0,0,0,0,0,1.2066,1.2093,1.2147,1.2166,1.2183,1.2229,1.2247,1.2273,1.231,1.2325,1.2361,1.2396,1.2429,1.2449,1.2481,1.2507,1.252,1.2516,1.2514,1.2512,1.2513,1.2532,1.2532,1.2537,1.2537,1.2537,0,0,1.2052,1.209,1.2104,1.2158,1.2188,1.2216,1.2241,1.2268,1.229,1.2329,1.2363,1.239,1.2433,1.2463,1.2478,1.2485,1.2515,1.2512,1.251,1.2513,1.2532,1.2532,1.2531,1.2537,1.2537,1.2537,0,0,1.2041,1.2072,1.2092,1.2123,1.2169,1.2199,1.2204,1.2256,1.2276,1.2311,1.2342,1.2368,1.2422,1.2453,1.2475,1.2479,1.2501,1.2489,1.2477,1.2495,1.2495,1.2495,1.2498,1.2499,1.249,1.249,1.249,0,1.2017,1.2061,1.21,1.2127,1.2151,1.219,1.2212,1.2239,1.2293,1.2309,1.2316,1.2387,1.2418,1.2457,1.2459,1.2475,1.2483,1.2483,1.2492,1.2492,1.2493,1.2497,1.2498,1.2488,1.2488,1.2488,1.2489,0,1.2031,1.2061,1.2072,1.2125,1.215,1.2174,1.2218,1.2239,1.2263,1.2293,1.2329,1.2369,1.2411,1.2423,1.2445,1.2466,1.2469,1.2483,1.2496,1.249,1.2494,1.2496,1.2486,1.2486,1.2487,1.2487,0,0,1.1991,1.2068,1.2071,1.2097,1.2152,1.2176,1.2204,1.2246,1.2264,1.2301,1.2326,1.2372,1.2387,1.2412,1.2439,1.2455,1.2459,1.2468,1.2469,1.2466,1.2487,1.2477,1.2478,1.2474,1.2474,1.2475,1.2485,0,1.1989,1.204,1.2078,1.2115,1.2145,1.2183,1.2207,1.2244,1.2274,1.2304,1.2337,1.237,1.2386,1.2402,1.2419,1.2455,1.2464,1.2454,1.2499,1.25,1.2488,1.248,1.2469,1.2476,1.2486,1.2487,1.2487,0,1.1993,1.203,1.207,1.2126,1.2139,1.216,1.2204,1.2232,1.2276,1.2297,1.2327,1.2355,1.2387,1.2397,1.2443,1.2436,1.2456,1.2477,1.2478,1.2484,1.2493,1.2488,1.2479,1.2481,1.249,1.2489,1.2489,0,1.1962,1.2022,1.2055,1.2076,1.214,1.2155,1.2182,1.2226,1.2251,1.2289,1.2306,1.2347,1.2369,1.2401,1.2441,1.2443,1.2484,1.2495,1.2503,1.2502,1.251,1.2509,1.2506,1.2521,1.2521,1.2521,1.2521,0,1.1957,1.198,1.2043,1.2063,1.2092,1.2136,1.2163,1.2194,1.2233,1.2261,1.2296,1.2322,1.2372,1.2404,1.2435,1.247,1.2479,1.2498,1.2506,1.2496,1.2493,1.251,1.2511,1.2521,1.2521,1.2521,1.2521,0,1.1927,1.197,1.2009,1.2068,1.2083,1.2102,1.2153,1.2175,1.2208,1.2243,1.2253,1.2305,1.2345,1.2388,1.2441,1.2462,1.2496,1.2507,1.2482,1.2486,1.2492,1.2492,1.2501,1.2505,1.2516,1.2515,1.2515,0,1.1921,1.194,1.2003,1.2024,1.2051,1.2085,1.2111,1.2156,1.2182,1.2235,1.2251,1.2294,1.233,1.2393,1.2435,1.2477,1.249,1.2491,1.2497,1.2486,1.2492,1.2491,1.2495,1.2489,1.2488,1.2488,1.2488,0,1.1906,1.1927,1.1963,1.2008,1.2038,1.2074,1.2113,1.2128,1.2181,1.2208,1.225,1.2279,1.2335,1.2378,1.2426,1.2455,1.2481,1.2486,1.249,1.248,1.2465,1.2475,1.2478,1.2485,1.2485,1.2486,1.2486,1.2486,1.189,1.191,1.1958,1.1998,1.2032,1.2067,1.2092,1.2129,1.2165,1.2215,1.2239,1.2282,1.2328,1.2396,1.2425,1.2459,1.2467,1.2472,1.2474,1.2475,1.2473,1.2459,1.2468,1.2468,1.2468,1.2468,1.2468,0,1.1878,1.1912,1.1948,1.2002,1.2034,1.2056,1.21,1.2126,1.2163,1.2204,1.224,1.229,1.2333,1.238,1.2426,1.2444,1.2458,1.2455,1.2454,1.2461,1.2463,1.2455,1.2444,1.2444,1.2444,1.2444,1.2444,1.2444,1.1876,1.1913,1.194,1.1995,1.2029,1.2071,1.2095,1.2129,1.2163,1.2217,1.2253,1.2284,1.2328,1.2378,1.2419,1.2432,1.2448,1.2442,1.2458,1.2459,1.2461,1.2463,1.2456,1.2445,1.2445,1.2455,1.2455,1.2455]}]]